Location: Unspecified
(0.0000°N, 0.0000°E)
Time: 22:58:59
(UTC+02:00)

AO-40 - Visible Passes

Search period start: 18 April 2014 00:00
Search period end: 28 April 2014 00:00
Orbit: 1130 x 58691 km, 8.1° (Epoch: 12 April)

Date Brightness Start Highest point End Pass type
(mag) Time Alt. Az. Time Alt. Az. Time Alt. Az.
18 Apr ? 06:21:42 10° E 12:01:03 60° ESE 13:35:04 10° E visible
20 Apr ? 04:42:46 69° W 04:50:16 87° S 16:14:47 10° W visible
20 Apr ? 23:21:44 10° WNW 23:23:21 19° WNW 23:23:21 19° WNW visible
21 Apr ? 04:39:46 10° E 11:14:47 81° S 18:22:57 10° ENE visible
22 Apr ? 06:13:26 10° E 11:32:52 56° E 13:06:24 10° E visible
24 Apr ? 04:17:05 79° W 04:20:37 87° S 16:06:07 10° W visible
24 Apr ? 22:53:58 10° WNW 22:57:20 31° NW 22:57:20 31° NW visible
25 Apr ? 04:32:03 10° E 11:06:31 82° S 17:55:30 10° ENE visible
26 Apr ? 06:05:21 10° E 11:04:48 52° E 12:37:34 10° E visible
